Location: D�nning
(49.2479°N, 12.8491°E)
Time: 06:21:31
(UTC+00:00)

Cosmos 1536 Rocket - Pass Details

Date: 18 September 2020
Orbit: 606 x 632 km, 82.5° (Epoch: 22 October)

Event Time Altitude Azimuth Distance (km) Brightness Sun altitude
Rises 18:31:21 0° 354° (N) 2,914 7.4 -13.1°
Reaches altitude 10° 18:33:38 10° 359° (N) 2,007 6.4 -13.5°
Maximum altitude 18:37:59 52° 76° (ENE) 784 3.7 -14.2°
Enters shadow 18:41:16 17° 149° (SSE) 1,601 5.2 -14.7°
